Wind_Speed
11 12 12 12 12 12 12 12 11 11 12 12 13 12 13 14 14 15 15 15 15 16 17 17 18 18 18 19 19 20 21 21 22 22 23 23 24 24
12 12 12 12 11 10 11 12 12 12 12 13 14 14 14 15 15 15 16 16 17 17 18 19 19 20 19 20 20 20 21 22 22 23 24 24 24 25
12 12 12 12 12 12 12 12 13 13 14 14 14 14 15 16 16 17 18 18 18 18 19 19 20 21 21 21 22 22 22 22 23 24 25 25 25 26
13 13 13 13 13 14 14 14 14 14 14 15 15 15 16 17 17 18 19 20 20 20 21 21 22 21 22 22 23 23 23 23 24 25 25 26 26 27
14 14 14 14 14 15 15 15 15 15 15 16 16 16 17 18 19 20 20 20 21 22 22 22 22 22 22 22 22 22 22 23 24 24 24 25 26 26
15 15 14 15 15 16 16 16 16 17 17 17 18 18 19 20 20 20 21 21 22 22 22 22 22 22 22 22 22 23 23 23 24 24 25 25 26 26
16 16 15 16 16 17 17 17 17 18 18 19 20 20 21 22 22 22 22 23 23 22 22 22 22 22 22 22 23 23 24 24 25 25 26 26 26 26
17 17 17 18 18 18 18 18 18 19 19 20 20 20 21 21 22 22 22 22 21 21 21 21 20 21 22 23 23 24 25 25 26 26 26 26 26 27
18 19 19 19 19 19 19 20 19 20 20 21 21 21 21 22 22 21 21 21 21 21 21 21 21 22 24 24 25 25 25 25 25 25 26 26 27 27
19 19 20 20 20 20 21 21 21 20 21 21 21 21 21 21 20 20 21 21 21 21 22 23 24 24 24 24 25 25 26 26 26 27 27 27 28 28
20 20 21 21 21 21 22 22 21 21 22 22 21 21 21 22 22 22 22 22 22 22 22 23 24 25 25 26 26 27 27 28 28 28 28 28 29 29
21 21 21 21 21 21 21 22 22 22 22 22 22 22 22 22 22 23 23 23 23 23 24 24 25 25 26 26 27 28 28 29 29 29 29 29 30 31
22 22 22 22 23 22 22 22 23 23 22 22 22 23 23 23 23 23 23 23 23 24 24 25 25 25 26 27 28 28 28 28 29 30 30 30 31 30
23 23 23 24 24 23 24 23 23 23 23 23 23 23 23 23 23 23 24 24 24 25 26 26 25 26 27 28 28 28 28 29 29 30 30 30 30 30
24 24 24 23 24 24 23 23 23 23 23 24 24 24 24 24 24 24 25 25 26 26 26 26 26 26 27 27 28 28 28 28 29 29 30 30 31 31
25 25 24 23 23 23 23 23 23 24 24 25 24 24 24 25 25 25 25 26 26 27 27 27 26 26 26 27 28 28 29 28 28 28 29 30 31 32
25 25 25 24 24 24 24 24 24 25 25 25 25 24 25 25 25 26 26 26 26 26 27 28 27 27 27 28 28 29 29 29 29 29 30 31 31 32
26 26 25 25 24 25 25 25 24 25 25 25 25 24 24 24 25 25 26 26 27 27 27 27 27 28 28 28 29 29 29 30 30 30 31 31 31 32
26 26 25 25 25 25 25 25 25 25 25 25 25 25 25 25 25 25 26 26 27 27 27 28 28 29 29 29 29 30 30 30 31 31 31 32 33 33
27 26 25 25 25 25 25 25 26 25 25 25 25 25 25 25 25 25 26 26 27 27 28 29 29 29 29 30 30 31 31 31 31 32 32 32 33 33
26 25 25 25 25 25 25 25 26 25 25 25 25 25 26 25 26 26 27 27 27 27 28 28 29 30 30 30 31 31 31 32 32 32 33 33 33 33
27 26 26 26 25 25 26 26 25 25 25 25 25 25 26 26 26 27 28 28 27 27 28 29 29 30 30 30 31 31 31 31 32 32 33 33 33 33
27 27 27 27 26 26 26 26 26 26 26 26 26 26 26 27 27 28 28 28 28 28 28 29 29 30 30 30 30 31 31 32 32 32 33 33 33 33
Wind_Direction
316 313 309 309 303 298 295 293 291 285 281 277 273 274 272 270 273 272 271 270 270 270 272 274 273 276 278 277 275 276 277 276 273 270 269 270 270 267
320 317 313 313 309 307 302 299 294 288 283 280 276 273 273 274 275 275 276 276 277 277 278 276 275 276 277 278 279 280 279 277 273 271 271 272 272 270
332 325 319 312 310 307 302 299 296 292 287 283 280 277 281 280 277 277 281 282 280 281 282 280 277 278 279 278 279 280 280 278 275 274 273 273 272 270
326 322 320 316 313 309 304 299 298 295 290 287 285 283 285 283 281 281 284 281 282 283 282 282 281 280 281 280 279 280 279 278 276 276 275 274 273 271
320 316 313 311 310 309 305 301 298 295 292 288 285 284 286 287 286 285 287 284 283 284 282 283 283 282 282 282 281 281 282 280 279 278 278 277 276 274
316 313 311 309 308 308 305 302 299 296 292 289 287 286 284 286 287 286 287 286 285 285 284 283 283 283 283 283 283 282 282 282 282 280 279 279 278 276
314 312 309 307 308 307 306 303 300 296 294 291 289 288 287 287 287 288 288 287 285 285 285 283 281 281 282 282 283 282 282 282 282 281 280 279 278 277
310 310 308 306 305 306 306 303 300 297 296 294 291 289 289 289 288 288 288 288 287 287 285 283 283 285 285 284 283 284 283 283 283 282 281 280 279 277
309 309 307 305 304 303 304 303 301 299 298 295 291 292 290 290 288 288 289 289 289 288 284 283 284 285 285 287 286 285 285 285 284 284 284 283 282 279
308 309 308 305 302 301 301 302 300 299 297 296 293 291 289 290 288 288 288 287 286 286 285 286 285 286 286 287 288 287 287 286 285 284 285 284 284 282
309 309 308 306 303 301 301 300 299 299 298 297 295 291 290 291 288 286 287 288 288 287 286 288 288 288 287 287 287 287 288 288 287 287 286 286 285 284
306 307 308 307 305 302 301 300 299 299 297 296 295 294 292 291 291 289 289 287 287 287 288 288 289 289 287 286 286 286 287 288 288 289 287 287 287 286
303 306 306 306 305 304 304 303 301 300 299 297 296 295 294 292 290 290 290 289 289 289 289 290 290 290 289 288 288 288 288 289 289 289 289 289 289 288
302 302 303 303 303 303 304 303 302 301 300 299 298 297 295 294 292 291 290 290 290 290 291 290 289 291 293 292 290 289 288 289 289 290 291 290 290 290
301 301 301 302 302 302 302 301 301 301 300 300 299 298 297 294 292 290 290 290 291 292 292 291 291 291 293 294 293 292 292 291 291 291 291 292 292 292
301 301 301 300 301 301 301 299 299 299 300 300 300 298 297 297 296 292 291 291 293 293 293 293 293 293 294 294 294 295 295 295 293 292 292 292 292 292
301 303 301 298 300 302 300 299 299 300 301 301 300 297 296 296 296 295 293 293 292 293 293 293 293 293 294 295 294 294 294 293 291 291 292 293 293 292
300 302 302 301 300 303 302 300 301 301 301 300 300 299 298 298 298 297 294 293 292 293 293 293 292 293 294 293 294 294 293 292 292 293 293 293 293 293
298 299 300 300 302 303 302 301 302 300 299 299 298 298 297 298 299 299 298 295 293 293 294 293 293 294 294 294 294 294 293 293 293 294 294 294 294 294
297 297 299 301 301 301 301 301 300 298 298 298 298 297 297 298 300 300 299 299 297 295 296 295 295 295 295 295 295 296 296 295 295 295 296 296 295 295
297 297 300 301 301 301 301 301 299 297 297 297 297 297 298 298 299 299 300 300 299 298 297 296 296 296 296 295 295 296 297 297 298 298 298 297 296 296
294 296 298 300 301 300 301 301 300 297 297 296 297 298 298 298 299 300 300 300 301 301 300 298 297 297 297 296 296 297 297 298 299 299 300 300 300 299
292 292 294 296 298 299 300 301 299 298 297 297 297 298 299 299 299 299 299 299 300 302 302 300 299 299 299 299 300 301 300 300 300 300 300 301 301 300
Height
5869 5868 5866 5864 5862 5861 5860 5859 5857 5856 5855 5854 5853 5852 5851 5850 5849 5848 5848 5847 5846 5845 5844 5843 5841 5840 5839 5837 5836 5835 5833 5832 5831 5831 5830 5829 5829 5828
5867 5865 5863 5861 5860 5858 5856 5855 5854 5853 5852 5851 5849 5848 5847 5846 5845 5844 5843 5842 5841 5840 5839 5837 5836 5835 5833 5832 5831 5829 5828 5826 5825 5824 5824 5823 5822 5821
5865 5863 5861 5859 5857 5855 5853 5852 5850 5849 5848 5847 5846 5844 5843 5842 5840 5839 5838 5837 5836 5835 5833 5832 5830 5829 5827 5826 5825 5823 5821 5820 5818 5817 5816 5816 5815 5814
5862 5860 5858 5856 5854 5852 5850 5848 5846 5845 5843 5842 5841 5840 5839 5838 5836 5834 5833 5832 5830 5829 5827 5826 5824 5822 5821 5820 5818 5816 5815 5813 5811 5810 5809 5808 5807 5806
5859 5857 5855 5853 5851 5848 5846 5844 5843 5841 5839 5838 5837 5835 5834 5832 5831 5829 5827 5826 5824 5823 5821 5819 5817 5816 5814 5813 5811 5810 5808 5806 5805 5803 5802 5801 5799 5798
5856 5853 5851 5849 5847 5845 5842 5840 5838 5837 5835 5833 5831 5830 5828 5827 5826 5824 5821 5820 5818 5816 5815 5813 5811 5810 5808 5807 5805 5803 5801 5800 5798 5796 5795 5793 5792 5791
5852 5850 5848 5845 5843 5841 5838 5836 5834 5832 5829 5828 5826 5824 5823 5821 5819 5817 5815 5814 5812 5810 5808 5806 5805 5803 5802 5800 5798 5797 5795 5793 5791 5789 5788 5786 5784 5783
5848 5846 5843 5841 5838 5836 5833 5831 5829 5827 5825 5822 5821 5819 5817 5815 5813 5811 5809 5807 5806 5804 5802 5800 5799 5797 5796 5794 5792 5790 5788 5786 5784 5782 5780 5778 5776 5775
5843 5841 5839 5836 5834 5831 5829 5826 5824 5821 5819 5817 5815 5813 5811 5809 5807 5805 5803 5801 5799 5798 5796 5794 5793 5791 5789 5787 5785 5783 5781 5779 5777 5775 5773 5771 5769 5767
5838 5836 5834 5831 5828 5826 5824 5821 5818 5816 5813 5811 5809 5807 5805 5803 5801 5799 5797 5795 5793 5791 5789 5788 5786 5784 5782 5780 5777 5775 5774 5771 5769 5767 5765 5763 5761 5759
5833 5831 5828 5825 5823 5820 5818 5815 5813 5810 5807 5805 5802 5800 5798 5796 5794 5792 5790 5789 5787 5785 5783 5781 5779 5776 5774 5772 5770 5768 5766 5764 5761 5759 5757 5754 5752 5750
5828 5826 5823 5820 5817 5814 5812 5809 5807 5804 5801 5798 5796 5794 5791 5789 5787 5785 5783 5781 5780 5778 5776 5774 5772 5769 5767 5765 5762 5760 5757 5755 5753 5750 5748 5746 5743 5741
5823 5820 5817 5814 5811 5808 5806 5803 5800 5798 5795 5792 5789 5787 5785 5783 5780 5778 5776 5774 5772 5770 5769 5766 5764 5762 5759 5757 5754 5752 5749 5746 5744 5742 5739 5737 5734 5732
5817 5814 5811 5808 5805 5802 5799 5796 5794 5791 5788 5786 5783 5781 5778 5776 5773 5771 5769 5767 5765 5763 5760 5758 5756 5754 5751 5749 5746 5743 5741 5738 5736 5733 5731 5728 5725 5722
5810 5807 5804 5801 5798 5795 5792 5790 5787 5784 5782 5779 5776 5774 5771 5769 5766 5764 5762 5759 5757 5754 5752 5750 5748 5745 5743 5740 5738 5735 5732 5730 5727 5725 5722 5719 5716 5713
5803 5800 5797 5794 5791 5789 5786 5783 5780 5778 5775 5772 5769 5767 5764 5761 5759 5756 5754 5752 5749 5747 5744 5742 5739 5737 5735 5732 5730 5727 5724 5722 5719 5716 5713 5711 5708 5704
5795 5792 5790 5787 5785 5782 5779 5776 5773 5770 5768 5765 5762 5759 5757 5754 5751 5749 5746 5744 5742 5739 5736 5734 5731 5729 5726 5724 5721 5718 5716 5713 5710 5707 5705 5702 5698 5695
5788 5785 5782 5780 5777 5775 5772 5769 5766 5763 5760 5757 5755 5752 5749 5747 5744 5741 5738 5736 5734 5731 5728 5726 5723 5721 5718 5715 5712 5709 5706 5704 5701 5698 5695 5692 5689 5686
5781 5779 5776 5773 5770 5767 5765 5762 5759 5756 5753 5750 5748 5745 5742 5739 5737 5734 5731 5728 5725 5723 5720 5717 5715 5712 5709 5707 5703 5700 5697 5694 5691 5688 5685 5682 5679 5676
5774 5771 5769 5766 5763 5760 5758 5755 5752 5748 5746 5743 5740 5738 5735 5732 5729 5726 5723 5720 5717 5715 5712 5709 5706 5703 5700 5698 5695 5692 5688 5685 5682 5679 5676 5672 5669 5666
5766 5764 5761 5759 5756 5753 5750 5747 5744 5741 5738 5736 5733 5731 5728 5725 5722 5719 5716 5713 5710 5707 5704 5701 5698 5695 5691 5689 5686 5683 5679 5676 5673 5669 5666 5663 5659 5656
5759 5756 5754 5751 5748 5745 5742 5740 5736 5733 5731 5728 5726 5723 5720 5717 5714 5711 5708 5705 5702 5699 5696 5693 5689 5686 5683 5680 5677 5674 5670 5667 5663 5659 5656 5653 5649 5645
5751 5748 5746 5743 5740 5737 5735 5732 5729 5726 5723 5721 5718 5715 5713 5710 5706 5703 5700 5697 5694 5691 5688 5684 5681 5678 5675 5671 5668 5664 5661 5658 5654 5650 5647 5643 5639 5636